Погода в Куровском

Россия / Свердловская область     57°03′08″N   62°54′00″E
темп.,
°C
ветер,
м/с
пор.,
м/с
влажн.,
%
обл.,
%
осадки,
мм/ч
давл.,
гПа
погр.,
м
11 мая, вт
вт1123:00+12ююз224479 0.0 102611
02:00+10ю22475 0.0 102610
05:00+9ююз22513 0.0 102710
08:00+14юз234155 0.0 1028231
11:00+19юз33296 0.0 10281223
14:00+21юз3325100 0.0 10271572
17:00+21зюз3425100 0.0 10271526
20:00+17юз33385 0.0 102742
12 мая, ср
ср1223:00+14юз45406 0.0 102765
02:00+12зюз364497 0.0 102677
05:00+12ссз3677100 0.0 102787
08:00+15с357413 0.0 1028414
11:00+20с345014 0.0 10281343
14:00+22ссз453672 0.0 10272083
17:00+22ссз453399 0.0 10272135
20:00+19ссз3344100 0.0 102625
13 мая, чт
чт1323:00+16з114770 0.0 102611
02:00+14з3556100 0.0 102668
05:00+13сз476999 0.0 1026107
08:00+18сз475458 0.0 1026345
11:00+23сз573959 0.0 10261658
14:00+25ссз57333 0.0 10252254
17:00+26ссз56316 0.0 10252534
20:00+22ссз234427 0.0 102523
14 мая, пт
пт1423:00+17в33625 0.0 102638
02:00+16ююв22675 0.0 102720
05:00+14ююз33725 0.0 102734
08:00+19ююз34575 0.0 1026270
11:00+25з453699 0.0 10251311
14:00+28зюз57285 0.0 10232745
17:00+28зсз57255 0.0 10233030
20:00+24з45385 0.0 102257
15 мая, сб
сб1523:00+20зсз33422 0.0 102222
02:00+17зсз46505 0.0 102284
05:00+16з475958 0.0 1023107
08:00+20з475076 0.0 1022274
11:00+27зюз5832100 0.0 10211985
14:00+29з792693 0.0 10192874
17:00+29зсз692556 0.0 10183567
20:00+24зсз46405 0.0 101891